Location: Malanoce
(44.2500°N, 7.4667°E)
Time: 19:41:31
(UTC+00:00)

BlueWalker 3 - Pass Details

Date: 21 January 2026
Orbit: 450 x 461 km, 53.2° (Epoch: 11 February)

Event Time Altitude Azimuth Distance (km) Brightness Sun altitude
Rises 17:19:32 0° 201° (SSW) 2,443 6.0 -9.9°
Reaches altitude 10° 17:21:56 10° 186° (S) 1,574 4.8 -10.3°
Maximum altitude 17:24:46 23° 133° (SE) 1,014 3.2 -10.8°
Enters shadow 17:26:35 16° 92° (E) 1,277 3.4 -11.1°
